Location: Unspecified
(0.0000°N, 0.0000°E)
Time: 13:56:38
(UTC+00:00)

OTV 5 (USA 277) - Pass Details

Date: 19 August 2019
Orbit: 305 x 329 km, 54.5° (Epoch: 20 August)

Event Time Altitude Azimuth Distance (km) Brightness Sun altitude
Rises 19:38:26 0° 221° (SW) 2,072 ? -23.1°
Reaches altitude 10° 19:40:27 10° 227° (SW) 1,233 ? -23.6°
Enters shadow 19:40:41 12° 229° (SW) 1,144 ? -23.6°
